Simultaneous Nadir Overpasses (SNOs) Predictions

Prediction of SNOs between METOP-B and NOAA-19 Satellite Orbit:

Table of predicted SNOs for the next 14.0 days since TLE Epoch: 5/18/2024
Index Date (METOP-B) Time (METOP-B) Lat,Lon (METOP-B) SZA (METOP-B ) Date (NOAA-19) Time (NOAA-19) Lat,Lon (NOAA-19) SZA (NOAA-19 ) Distance(km) Time Diff (sec)
1 05/26/2024 19:06:15 74.37,-113.25 53.07 05/26/2024 19:05:02 74.38,-113.22 53.09 1.22 73
2 05/26/2024 19:56:47 -74.85, 55.35 126.49 05/26/2024 19:55:57 -74.86, 55.37 126.48 1.03 50
3 05/26/2024 20:47:20 75.17,-136.43 53.80 05/26/2024 20:46:43 75.18,-136.38 53.82 2.17 37
4 05/26/2024 21:37:53 -75.58, 32.14 125.81 05/26/2024 21:37:39 -75.60, 32.20 125.80 2.20 14
5 05/26/2024 22:28:27 75.85,-159.69 54.44 05/26/2024 22:28:26 75.87,-159.60 54.46 3.23 1
6 05/26/2024 23:19:04 -76.07, 8.36 125.35 05/26/2024 23:19:27 -76.05, 8.28 125.37 3.12 23
7 05/27/2024 00:09:40 76.24, 176.27 54.81 05/27/2024 00:10:16 76.22, 176.21 54.80 2.16 36
8 05/27/2024 01:00:14 -76.59, -15.14 124.84 05/27/2024 01:01:13 -76.57, -15.20 124.85 1.85 59



Historial Predications of SNOs between METOP-B and NOAA-19
